THURAYA-3 (32404 NORAD) Tracking and Keplerian Element Data

This shows tracking and keplerian element data for the satellite.

Feedback or suggestion? Click here.




ElementValue
Catalog32404
NameTHURAYA-3
Epoch Orbit4130
Epoch Day109.86250163
Epoch Year2019
RAAN2.6758
Inclination3.8141
Eccentricity0.0005026
Argument of Perigee23.044
Mean Anonmoly230.9429
Mean Motion1.00271894
Decay Rate-3.2E-06
L11 32404U 08001A 19109.86250163 -.00000320 00000-0 00000+0 0 9998
L22 32404 3.8141 2.6758 0005026 23.0440 230.9429 1.00271894 41305

Live tracking and technical data element details for THURAYA-3 (NORAD 32404). THURAYA-3 can be tracked NOW for your location showing map with azimuth and elevation plus other details from your city location.

Track the satellite on the map from your city or location and see movement details for azimuth, elevation, latitude, longitude, range, height, and movement on the map or in text.







IsCatalogInMostPopularTable: catalog: 32404, numindb: 407
Update: records affected: 1



GetName: 32404 THURAYA-3

Hit Count: updated at: Sat, 20 Apr 2019 21:21:13 GMT